Weather WX

World > North America > United States > Ohio

Warren, Ohio Regional Weather

Lat: 41.24N, Lon: 80.82W
Wx Zone: OHZ023
Warning FLW WEATHER ALERT - (More Info. Click Here) Warning
Feedback

Warren, OH Regional Weather

Expires:201906260900;;094933
ASUS41 KCLE 260812
RWRCLE
OHIO REGIONAL WEATHER ROUNDUP
NATIONAL WEATHER SERVICE WILMINGTON, OH
400 AM EDT WED JUN 26 2019

NOTE: "FAIR" INDICATES FEW OR NO CLOUDS BELOW 12,000 FEET WITH NO
SIGNIFICANT WEATHER AND/OR OBSTRUCTIONS TO VISIBILITY.


OHZ009>014-019>023-028>033-038-089-260900-
   NORTHEAST OHIO
  
CITY           SKY/WX    TMP DP  RH WIND       PRES   REMARKS
CLE-HOPKINS    FAIR      71  60  68 S9        30.01S                  
CLE-LAKEFRONT  FAIR      75  58  55 S14G26    29.97F                  
CUY CO. ARPT   MOCLDY    73  60  63 MISG      30.00F                  
LORAIN-ELYRIA  FAIR      69  56  62 SW9       30.00S                  
ASHTABULA      FAIR      67  60  78 SW6       30.00F                  
AKRON-CANTON   FAIR      69  58  67 SW7       30.04F                  
WOOSTER        FAIR      66  60  81 SW7       30.04S                  
MANSFIELD      FAIR      70  60  70 SW9       30.04S                  
YOUNGSTOWN     FAIR      68  58  70 SW8       30.03R                  
$$
 

SKY/WX - Weather  TMP - Temperature  DP - Dew Point  RH - Relative Humidity
WIND - Wind Direction/Speed PRES - Barometric Pressure VSB - Visibility
WCI - Wind Chill Index E13G22 Wind - East Wind 13 mph/Gusts of 22 mph